Wahoo, NE

4:37 PM CST on November 18, 2017 (GMT -0600)
Wahoo Municipal

Weather History for KAHQ - September, 2012

Change the Weather History Date:

Wednesday, September 26, 2012

  Actual Average Record
Temperature  
Mean Temperature 62 °F -  
Max Temperature 78 °F 76 °F 91 °F (1990)
Min Temperature 46 °F 46 °F 29 °F (1984)
Degree Days  
Heating Degree Days 3    
Growing Degree Days 12 (Base 50)    
Moisture  
Dew Point 32 °F    
Average Humidity 40    
Maximum Humidity 71    
Minimum Humidity 12    
Precipitation  
Precipitation 0.00 in - - ()
Sea Level Pressure  
Sea Level Pressure 30.05 in    
Wind  
Wind Speed 8 mph (NNE)    
Max Wind Speed 14 mph    
Max Gust Speed 18 mph    
Visibility 10 miles    
Events      
Averages and records for this station are not official NWS values.
T = Trace of Precipitation, MM = Missing Value Source: NWS Daily Summary

Daily Weather History Graph

Daily Weather History Graph

Search for Another Location

Airport or City:

Trip Planner

Search our weather history database for the weather conditions in past years. The results will help you decide how hot, cold, wet, or windy it might be!

Date:

Astronomy

Sep. 26, 2012 Rise Set
Actual Time 7:18 AM CDT 7:15 PM CDT
Civil Twilight 6:50 AM CDT 7:43 PM CDT
Nautical Twilight 6:18 AM CDT 8:15 PM CDT
Astronomical Twilight 5:46 AM CDT 8:47 PM CDT
Moon 5:17 PM CDT (9/26) 3:43 AM CDT (9/26)
Length of Visible Light 12h 52m
Length of Day
11h 57m
Waxing Gibbous, 88% of the Moon is Illuminated
Sep 26
Waxing Gibbous
Sep 29
Full
Oct 8
Last Quarter
Oct 15
New
Oct 21
First Quarter

Hourly Weather History & Observations

Time (CDT) Temp. Dew Point Humidity Pressure Visibility Wind Dir Wind Speed Gust Speed Precip Events Conditions
12:15 AM 52.5 °F 41.7 °F 67% 29.91 in 10.0 mi North 10.4 mph - N/A   Clear
12:35 AM 54.1 °F 41.2 °F 62% 29.91 in 10.0 mi North 8.1 mph - N/A   Clear
12:55 AM 58.1 °F 40.6 °F 52% 29.91 in 10.0 mi ENE 6.9 mph - N/A   Clear
1:15 AM 61.2 °F 39.2 °F 44% 29.90 in 10.0 mi NE 11.5 mph - N/A   Clear
1:35 AM 60.1 °F 38.8 °F 45% 29.89 in 10.0 mi NE 10.4 mph - N/A   Clear
1:55 AM 59.0 °F 39.0 °F 48% 29.91 in 10.0 mi NNE 5.8 mph - N/A   Clear
2:15 AM 55.4 °F 38.7 °F 53% 29.94 in 10.0 mi Calm Calm - N/A   Clear
2:35 AM 56.3 °F 38.8 °F 52% 29.96 in 10.0 mi North 3.5 mph - N/A   Clear
2:55 AM 54.5 °F 38.7 °F 55% 29.97 in 10.0 mi North 3.5 mph - N/A   Clear
3:15 AM 54.0 °F 39.2 °F 57% 29.97 in 10.0 mi North 6.9 mph - N/A   Clear
3:35 AM 52.7 °F 39.2 °F 60% 29.97 in 10.0 mi North 5.8 mph - N/A   Clear
3:55 AM 52.3 °F 39.4 °F 61% 29.97 in 10.0 mi North 8.1 mph - N/A   Clear
4:15 AM 53.2 °F 38.7 °F 58% 29.97 in 10.0 mi North 8.1 mph - N/A   Clear
4:35 AM 51.3 °F 38.7 °F 62% 29.98 in 10.0 mi NNW 6.9 mph - N/A   Clear
4:55 AM 49.3 °F 38.8 °F 67% 29.98 in 10.0 mi North 8.1 mph - N/A   Clear
5:15 AM 48.6 °F 38.7 °F 69% 29.98 in 10.0 mi NNW 6.9 mph - N/A   Clear
5:35 AM 48.2 °F 38.3 °F 69% 29.99 in 10.0 mi NNW 6.9 mph - N/A   Clear
5:55 AM 47.3 °F 38.3 °F 71% 29.99 in 10.0 mi NNW 8.1 mph - N/A   Clear
6:15 AM 48.2 °F 37.9 °F 68% 30.00 in 10.0 mi NNW 8.1 mph - N/A   Clear
6:35 AM 48.7 °F 37.6 °F 65% 30.01 in 10.0 mi NNW 6.9 mph - N/A   Clear
6:55 AM 48.0 °F 37.4 °F 67% 30.01 in 10.0 mi NNW 10.4 mph - N/A   Clear
7:35 AM 46.8 °F 37.0 °F 69% 30.03 in 10.0 mi NNW 10.4 mph - N/A   Clear
7:55 AM 47.1 °F 37.4 °F 69% 30.04 in 10.0 mi North 8.1 mph - N/A   Clear
8:15 AM 48.6 °F 37.6 °F 66% 30.04 in 10.0 mi NNW 8.1 mph - N/A   Clear
8:35 AM 50.2 °F 37.4 °F 62% 30.05 in 10.0 mi NNW 6.9 mph - N/A   Clear
8:55 AM 51.3 °F 37.4 °F 59% 30.06 in 10.0 mi North 6.9 mph - N/A   Clear
9:15 AM 52.9 °F 37.2 °F 55% 30.07 in 10.0 mi North 5.8 mph - N/A   Clear
9:35 AM 54.7 °F 36.5 °F 50% 30.08 in 10.0 mi North 3.5 mph - N/A   Clear
9:55 AM 55.9 °F 36.1 °F 47% 30.08 in 10.0 mi North 8.1 mph - N/A   Clear
10:15 AM 58.6 °F 35.6 °F 42% 30.09 in 10.0 mi NNE 5.8 mph - N/A   Clear
10:35 AM 61.2 °F 35.6 °F 39% 30.09 in 10.0 mi NNE 5.8 mph - N/A   Clear
11:35 AM 66.7 °F 34.0 °F 30% 30.09 in 10.0 mi NE 12.7 mph - N/A   Clear
11:55 AM 68.2 °F 33.8 °F 28% 30.09 in 10.0 mi NE 10.4 mph - N/A   Clear
12:15 PM 70.9 °F 34.2 °F 26% 30.08 in 10.0 mi NNE 9.2 mph - N/A   Clear
12:35 PM 71.6 °F 34.0 °F 25% 30.08 in 10.0 mi NE 11.5 mph 17.3 mph N/A   Clear
12:55 PM 72.9 °F 33.1 °F 23% 30.08 in 10.0 mi North 9.2 mph - N/A   Clear
1:15 PM 74.5 °F 29.7 °F 19% 30.07 in 10.0 mi NE 13.8 mph - N/A   Clear
1:35 PM 75.7 °F 27.0 °F 16% 30.07 in 10.0 mi NE 11.5 mph 16.1 mph N/A   Clear
1:55 PM 75.7 °F 26.2 °F 16% 30.06 in 10.0 mi NNE 11.5 mph 17.3 mph N/A   Clear
2:15 PM 77.2 °F 26.2 °F 15% 30.06 in 10.0 mi NNE 12.7 mph 18.4 mph N/A   Clear
2:35 PM 77.0 °F 24.1 °F 14% 30.06 in 10.0 mi ENE 13.8 mph 18.4 mph N/A   Clear
2:55 PM 75.7 °F 23.5 °F 14% 30.06 in 10.0 mi NE 12.7 mph 16.1 mph N/A   Clear
3:15 PM 77.7 °F 24.4 °F 14% 30.06 in 10.0 mi NNE 9.2 mph - N/A   Clear
3:35 PM 77.2 °F 24.6 °F 14% 30.07 in 10.0 mi ENE 8.1 mph - N/A   Clear
3:55 PM 77.7 °F 24.8 °F 14% 30.07 in 10.0 mi NE 5.8 mph - N/A   Clear
4:15 PM 78.1 °F 24.6 °F 14% 30.07 in 10.0 mi NE 10.4 mph - N/A   Clear
4:35 PM 77.9 °F 24.1 °F 14% 30.07 in 10.0 mi NE 11.5 mph - N/A   Clear
5:15 PM 77.7 °F 22.5 °F 13% 30.07 in 10.0 mi NE 10.4 mph - N/A   Clear
5:35 PM 77.7 °F 20.8 °F 12% 30.08 in 10.0 mi NE 11.5 mph - N/A   Clear
5:55 PM 76.6 °F 19.6 °F 12% 30.08 in 10.0 mi NE 9.2 mph - N/A   Clear
6:15 PM 74.7 °F 19.2 °F 12% 30.08 in 10.0 mi NE 8.1 mph - N/A   Clear
6:35 PM 71.2 °F 20.3 °F 15% 30.09 in 10.0 mi NE 4.6 mph - N/A   Clear
6:55 PM 69.6 °F 20.8 °F 16% 30.09 in 5.0 mi NE 4.6 mph - N/A   Haze
7:15 PM 67.1 °F 22.3 °F 18% 30.09 in 10.0 mi NNE 3.5 mph - N/A   Clear
7:35 PM 64.4 °F 25.3 °F 23% 30.10 in 10.0 mi NNE 3.5 mph - N/A   Clear
7:55 PM 60.8 °F 25.9 °F 26% 30.11 in 7.0 mi NNE 4.6 mph - N/A   Clear
8:35 PM 57.7 °F 27.5 °F 31% 30.12 in 10.0 mi Calm Calm - N/A   Clear
8:55 PM 57.7 °F 26.4 °F 30% 30.12 in 10.0 mi North 3.5 mph - N/A   Clear
9:15 PM 56.5 °F 25.7 °F 31% 30.13 in 10.0 mi North 4.6 mph - N/A   Clear
9:35 PM 57.0 °F 25.2 °F 29% 30.13 in 10.0 mi North 5.8 mph - N/A   Clear
9:55 PM 53.1 °F 26.1 °F 35% 30.14 in 10.0 mi North 6.9 mph - N/A   Clear
10:15 PM 51.6 °F 27.0 °F 38% 30.14 in 10.0 mi North 6.9 mph - N/A   Clear
10:35 PM 50.2 °F 28.4 °F 43% 30.14 in 10.0 mi North 6.9 mph - N/A   Clear
11:15 PM 50.0 °F 27.1 °F 41% 30.15 in 10.0 mi North 5.8 mph - N/A   Clear
11:35 PM 47.7 °F 28.0 °F 47% 30.15 in 10.0 mi North 6.9 mph - N/A   Clear
11:55 PM 47.7 °F 27.5 °F 46% 30.15 in 10.0 mi North 8.1 mph - N/A   Clear